Weather reports worldwide

Advertisment
Marce, France (7228): temperature & dewpoint: 10.09.2019 05:00:00 - 16.09.2019 05:00:00 (CEST)Marce, France (7228): wind speed & gusts: 10.09.2019 05:00:00 - 16.09.2019 05:00:00 (CEST)Marce, France (7228): wind direction: 10.09.2019 05:00:00 - 16.09.2019 05:00:00 (CEST)Marce, France (7228): reduced air pressure: 10.09.2019 05:00:00 - 16.09.2019 05:00:00 (CEST)Marce, France (7228): visibility: 10.09.2019 05:00:00 - 16.09.2019 05:00:00 (CEST)Marce, France (7228): precipitation: 10.09.2019 05:00:00 - 16.09.2019 05:00:00 (CEST)
Date & Time tt [°C] td [°C] ff [km/h] ff [kn] fx [km/h] fx [kn] dd ppp [hPa] vv [km] rr [mm]
16.09.2019 05:00:00 - - - - - - - - - -
16.09.2019 04:00:00 16,2 13,3 6 4 13 7 NNE 1021,9 43 0,0
16.09.2019 03:00:00 17,4 13,7 5 3 16 9 NNE 1022,2 55 0,0
16.09.2019 02:00:00 18,0 13,5 9 5 19 10 N 1022,4 60 0,0
16.09.2019 01:00:00 18,7 12,7 7 4 16 9 N 1022,5 60 0,0
16.09.2019 00:00:00 21,2 12,9 12 7 21 11 NNE 1022,3 60 0,0
15.09.2019 23:00:00 18,3 12,5 3 2 13 7 N 1022,3 60 0,0
15.09.2019 22:00:00 18,2 12,4 3 2 9 5 NNE 1022,0 60 0,0
15.09.2019 21:00:00 21,0 12,7 6 4 10 6 N 1021,7 60 0,0
15.09.2019 20:00:00 25,6 12,8 6 4 16 9 N 1021,4 60 0,0
15.09.2019 19:00:00 28,4 13,1 8 4 17 9 NNE 1021,3 59 0,0
15.09.2019 18:00:00 29,1 13,3 10 6 24 13 NNE 1021,4 60 0,0
15.09.2019 17:00:00 29,3 12,7 9 5 20 11 N 1021,9 59 0,0
15.09.2019 16:00:00 28,9 13,2 11 6 20 11 N 1022,6 60 0,0
15.09.2019 15:00:00 28,3 12,6 9 5 22 12 NE 1023,1 40 0,0
15.09.2019 14:00:00 27,5 13,8 10 5 25 14 NE 1023,8 18 0,0
15.09.2019 13:00:00 26,7 14,5 12 6 23 13 ENE 1024,6 60 0,0
15.09.2019 12:00:00 24,8 14,6 10 5 16 9 NNE 1025,0 60 0,0
15.09.2019 11:00:00 22,6 14,4 5 3 14 7 NE 1025,4 54 0,0
15.09.2019 10:00:00 18,5 13,1 11 6 16 9 ENE 1025,3 57 0,0
15.09.2019 09:00:00 16,0 13,1 6 3 12 6 ENE 1025,1 37 0,0
15.09.2019 08:00:00 14,2 12,8 3 2 9 5 NNE 1024,9 34 0,0
15.09.2019 07:00:00 14,2 12,6 4 2 8 4 NNE 1024,6 35 0,0
15.09.2019 06:00:00 14,2 12,8 4 2 6 3 NE 1024,7 42 0,0
15.09.2019 05:00:00 14,6 12,8 2 1 8 4 NNE 1025,2 59 0,0
15.09.2019 04:00:00 14,9 12,8 5 3 9 5 E 1025,1 60 0,0
15.09.2019 03:00:00 15,3 13,0 6 3 11 6 E 1025,2 60 0,0
15.09.2019 02:00:00 18,1 14,0 5 3 12 7 NE 1025,6 60 0,0
15.09.2019 01:00:00 19,3 14,1 6 3 14 8 NE 1025,7 60 0,0
15.09.2019 00:00:00 20,1 14,2 8 4 13 7 NE 1025,9 60 0,0
14.09.2019 23:00:00 20,7 14,1 8 4 15 8 NE 1026,1 60 0,0
14.09.2019 22:00:00 22,7 14,5 8 4 14 8 NE 1026,0 60 0,0
14.09.2019 21:00:00 20,9 14,1 4 2 9 5 NE 1025,7 60 0,0
14.09.2019 20:00:00 25,8 14,6 4 2 16 9 NNE 1025,5 60 0,0
14.09.2019 19:00:00 27,6 13,5 10 6 21 11 ENE 1025,5 60 0,0
14.09.2019 18:00:00 28,0 14,3 11 6 25 13 ENE 1025,5 59 0,0
14.09.2019 17:00:00 28,0 15,3 13 7 26 14 NE 1025,9 60 0,0
14.09.2019 16:00:00 27,5 15,5 11 6 24 13 NE 1026,5 60 0,0
14.09.2019 15:00:00 26,9 16,2 11 6 28 15 NNE 1027,0 60 0,0
14.09.2019 14:00:00 25,5 16,1 15 8 24 13 ENE 1027,7 26 0,0
14.09.2019 13:00:00 24,5 16,0 12 6 25 13 ENE 1028,2 60 0,0
14.09.2019 12:00:00 22,9 15,7 14 7 23 13 E 1028,7 57 0,0
14.09.2019 11:00:00 20,6 15,4 17 9 29 16 ENE 1029,2 18 0,0
14.09.2019 10:00:00 18,4 15,3 17 9 26 14 ENE 1029,6 60 0,0
14.09.2019 09:00:00 16,4 14,8 11 6 21 11 NE 1029,8 18 0,0
14.09.2019 08:00:00 15,0 14,2 7 4 15 8 NNE 1029,8 19 0,0
14.09.2019 07:00:00 15,4 14,3 9 5 24 13 NE 1029,5 38 0,0
14.09.2019 06:00:00 15,9 14,1 15 8 25 14 NNE 1029,3 60 0,0
14.09.2019 05:00:00 16,2 14,0 11 6 21 11 NNE 1029,6 60 0,0
14.09.2019 04:00:00 16,3 13,8 9 5 18 10 NNE 1030,1 60 0,0
14.09.2019 03:00:00 16,9 13,8 8 4 16 9 NE 1030,4 60 0,0
14.09.2019 02:00:00 17,5 14,0 9 5 19 10 NNE 1030,3 60 0,0
14.09.2019 01:00:00 18,3 14,2 9 5 21 11 NE 1030,1 60 0,0
14.09.2019 00:00:00 19,1 14,4 9 5 21 12 NE 1030,1 60 0,0
13.09.2019 23:00:00 20,3 14,6 12 6 21 11 NNE 1030,2 60 0,0
13.09.2019 22:00:00 21,3 14,5 10 5 18 10 NNE 1030,2 60 0,0
13.09.2019 21:00:00 22,4 14,8 10 6 16 9 NNE 1030,0 60 0,0
13.09.2019 20:00:00 24,2 15,1 9 5 26 14 NNE 1029,8 60 0,0
13.09.2019 19:00:00 25,8 15,2 15 8 26 14 NNE 1029,6 20 0,0
13.09.2019 18:00:00 26,5 15,2 14 7 26 14 NE 1029,8 60 0,0
13.09.2019 17:00:00 26,5 15,5 15 8 27 15 NNE 1030,0 60 0,0
13.09.2019 16:00:00 26,4 16,3 13 7 22 12 NNE 1030,8 47 0,0
13.09.2019 15:00:00 25,5 16,1 11 6 21 11 NE 1031,3 60 0,0
13.09.2019 14:00:00 24,2 16,2 10 5 26 14 NE 1031,8 18 0,0
13.09.2019 13:00:00 22,7 15,3 15 8 25 14 NNE 1032,3 60 0,0
13.09.2019 12:00:00 21,4 15,0 16 9 29 16 NNE 1033,0 40 0,0
13.09.2019 11:00:00 20,0 16,2 16 9 25 14 NE 1033,4 60 0,0
13.09.2019 10:00:00 17,5 16,0 10 5 23 12 NNE 1033,4 48 0,0
13.09.2019 09:00:00 15,0 14,7 10 6 16 9 NNE 1033,0 29 0,0
13.09.2019 08:00:00 13,9 13,9 6 4 12 7 NNE 1032,7 0,9 0,0
13.09.2019 07:00:00 14,2 14,2 6 3 12 6 NNE 1032,2 11 0,0
13.09.2019 06:00:00 11,1 10,6 3 2 5 3 N 1032,2 1,4 0,2
13.09.2019 05:00:00 13,7 13,5 3 2 8 4 N 1032,4 0,9 0,0
13.09.2019 04:00:00 13,4 12,9 2 1 10 6 ESE 1032,3 10 0,0
13.09.2019 03:00:00 15,9 15,3 5 3 15 8 NNE 1032,2 45 0,0
13.09.2019 02:00:00 13,6 13,1 3 1 6 3 NE 1032,2 60 0,0
13.09.2019 01:00:00 14,4 13,8 4 2 16 9 NNW 1032,3 60 0,0
13.09.2019 00:00:00 14,8 13,3 3 2 9 5 ENE 1032,6 59 0,0
12.09.2019 23:00:00 15,5 12,8 4 2 10 6 NNE 1032,3 60 0,0
12.09.2019 22:00:00 17,3 14,9 7 4 10 6 N 1032,1 60 0,0
12.09.2019 21:00:00 19,5 15,2 4 2 10 5 NNW 1031,7 60 0,0
12.09.2019 20:00:00 22,3 15,4 5 3 15 8 N 1031,3 60 0,0
12.09.2019 19:00:00 24,8 16,0 8 4 16 9 N 1031,2 50 0,0
12.09.2019 18:00:00 25,6 15,9 6 3 13 7 SW 1031,2 52 0,0
12.09.2019 17:00:00 25,2 15,8 3 1 18 10 S 1031,4 17 0,0
12.09.2019 16:00:00 23,7 15,5 3 2 15 8 NW 1032,0 57 0,0
12.09.2019 15:00:00 22,0 15,6 7 4 12 7 WSW 1032,6 60 0,0
12.09.2019 14:00:00 21,8 15,6 4 2 16 9 SSE 1032,8 19 0,0
12.09.2019 13:00:00 21,8 15,9 8 4 16 9 SW 1032,9 60 0,0
12.09.2019 12:00:00 18,0 15,8 4 2 13 7 WSW 1033,3 60 0,0
12.09.2019 11:00:00 16,3 16,1 6 3 14 7 WSW 1032,9 19 0,0
12.09.2019 10:00:00 15,9 15,9 6 3 13 7 W 1032,1 5 0,0
12.09.2019 09:00:00 15,6 15,6 5 3 13 7 W 1031,6 1,3 0,0
12.09.2019 08:00:00 15,1 15,1 6 3 15 8 WNW 1031,2 0,5 0,0
12.09.2019 07:00:00 14,8 14,8 5 3 12 7 W 1030,5 0,5 0,0
12.09.2019 06:00:00 14,7 14,5 8 4 12 7 W 1030,3 2,6 0,0
12.09.2019 05:00:00 14,4 14,4 9 5 14 8 W 1030,2 9 0,0
12.09.2019 04:00:00 10,9 10,3 0 0 3 2 N 1030,4 17 0,0
12.09.2019 03:00:00 11,6 11,0 2 1 6 3 W 1030,6 1,6 0,0
12.09.2019 02:00:00 12,3 11,0 0 0 9 5 N 1030,3 44 0,0
12.09.2019 01:00:00 13,5 12,2 7 4 10 5 WSW 1029,8 59 0,0
12.09.2019 00:00:00 14,6 13,1 7 4 10 5 W 1029,5 60 0,0
11.09.2019 23:00:00 16,0 13,5 6 3 13 7 W 1029,1 60 0,0
11.09.2019 22:00:00 15,3 12,1 2 1 8 4 WSW 1028,6 60 0,0
11.09.2019 21:00:00 16,8 11,7 0 0 9 5 N 1027,9 20 0,0
11.09.2019 20:00:00 21,3 11,9 6 3 19 10 W 1027,4 60 0,0
11.09.2019 19:00:00 22,9 10,0 9 5 19 10 NW 1027,2 60 0,0
11.09.2019 18:00:00 23,6 5,0 11 6 24 13 WNW 1026,9 51 0,0
11.09.2019 17:00:00 23,5 7,1 14 8 28 15 W 1026,8 60 0,0
11.09.2019 16:00:00 22,9 8,9 10 5 27 15 W 1026,8 49 0,0
11.09.2019 15:00:00 21,7 11,1 12 6 31 17 W 1027,0 36 0,0
11.09.2019 14:00:00 21,2 12,1 13 7 27 15 W 1027,3 20 0,0
11.09.2019 13:00:00 19,5 12,7 13 7 23 12 W 1027,4 54 0,0
11.09.2019 12:00:00 17,8 13,3 6 4 13 7 WSW 1027,5 33 0,0
11.09.2019 11:00:00 15,0 13,7 6 3 11 6 W 1027,5 12 0,0
11.09.2019 10:00:00 12,4 12,2 5 3 7 4 WSW 1026,9 8 0,0
11.09.2019 09:00:00 11,2 11,2 3 1 7 4 SW 1026,5 7 0,0
11.09.2019 08:00:00 9,8 9,7 0 0 2 1 N 1025,7 12 0,0
11.09.2019 07:00:00 9,4 9,3 2 1 3 2 SE 1025,0 13 0,0
11.09.2019 06:00:00 9,5 9,4 0 0 3 1 N 1024,6 4,0 0,2
11.09.2019 05:00:00 8,9 8,8 0 0 5 3 N 1024,8 2,9 0,0
11.09.2019 04:00:00 9,0 8,5 0 0 4 2 N 1024,3 0,2 0,0
11.09.2019 03:00:00 9,6 8,8 4 2 6 4 NNW 1024,6 3,1 0,0
11.09.2019 02:00:00 10,9 9,7 0 0 11 6 N 1024,1 16 0,0
11.09.2019 01:00:00 12,9 11,1 7 4 14 7 NNW 1024,0 56 0,0
11.09.2019 00:00:00 13,2 11,1 10 6 16 9 N 1023,4 60 0,0
10.09.2019 23:00:00 13,6 10,0 9 5 16 9 NNW 1022,9 60 0,0
10.09.2019 22:00:00 12,2 8,5 0 0 4 2 N 1022,4 60 0,0
10.09.2019 21:00:00 15,0 8,0 3 1 8 4 N 1021,5 60 0,0
10.09.2019 20:00:00 20,0 7,4 5 3 23 13 NNE 1020,7 60 0,0
10.09.2019 19:00:00 21,6 7,0 10 6 24 13 NNE 1020,0 53 0,0
10.09.2019 18:00:00 22,0 6,6 13 7 32 17 N 1019,4 55 0,0
10.09.2019 17:00:00 22,0 7,0 12 7 26 14 NE 1019,3 59 0,0
10.09.2019 16:00:00 21,9 7,3 14 8 32 17 NE 1019,2 60 0,0
10.09.2019 15:00:00 21,7 7,5 16 8 30 16 NNE 1019,1 59 0,0
10.09.2019 14:00:00 21,2 7,8 16 8 29 16 ENE 1019,1 60 0,0
10.09.2019 13:00:00 20,0 8,6 12 7 28 15 NE 1018,7 60 0,0
10.09.2019 12:00:00 18,2 9,5 12 6 25 14 NE 1018,4 59 0,0
10.09.2019 11:00:00 16,2 10,1 11 6 23 13 NE 1017,6 47 0,0
10.09.2019 10:00:00 14,3 10,3 13 7 30 16 NNE 1016,5 60 0,0
10.09.2019 09:00:00 11,8 9,9 15 8 25 13 NNE 1015,8 58 0,0
10.09.2019 08:00:00 11,4 9,8 11 6 21 11 NNE 1014,8 60 0,0
10.09.2019 07:00:00 11,5 10,2 6 4 15 8 NE 1014,1 59 0,0
10.09.2019 06:00:00 11,5 10,6 8 5 16 9 ENE 1013,3 43 0,0
10.09.2019 05:00:00 11,7 10,6 8 4 18 10 NE 1013,0 49 0,0

tt = temperature
td = dewpoint
ff = wind speed
fx = gusts
dd = wind direction
ppp = reduced air pressure
vv = visibility
rr = precipitation

Next stations